| time (UTC) | temp F | wind direction | speed knots | gust knots | rain 1hr in | rain 24hr in | rain mn in | humidity % | barometer mb |
| 20260506094259 | 54 | 294 | 1.7 | 2.6 | 0.00 | 0.00 | 0.00 | 54 | 1004.4 |
| 20260506092759 | 54 | 249 | 0.9 | 1.7 | 0.00 | 0.00 | 0.00 | 54 | 1004.4 |
| 20260506091259 | 54 | 279 | 0.9 | 1.7 | 0.00 | 0.00 | 0.00 | 53 | 1004.1 |
| 20260506085759 | 54 | 256 | 0.9 | 2.6 | 0.00 | 0.00 | 0.00 | 54 | 1004.4 |
| 20260506084259 | 54 | 276 | 1.7 | 4.3 | 0.00 | 0.00 | 0.00 | 54 | 1004.4 |
| 20260506072759 | 54 | 272 | 1.7 | 2.6 | 0.00 | 0.00 | 0.11 | 54 | 1004.1 |
| 20260506071259 | 54 | 296 | 1.7 | 2.6 | 0.00 | 0.00 | 0.11 | 54 | 1004.1 |
| 20260506061259 | 54 | 272 | 1.7 | 1.7 | 0.00 | 0.00 | 0.11 | 54 | 1003.4 |
| 20260506051259 | 55 | 283 | 0.0 | 1.7 | 0.00 | 0.00 | 0.11 | 54 | 1003.4 |
| 20260506044259 | 55 | 291 | 0.9 | 2.6 | 0.00 | 0.00 | 0.11 | 54 | 1003.0 |
| 20260506042759 | 55 | 284 | 0.9 | 1.7 | 0.00 | 0.00 | 0.11 | 54 | 1003.0 |
| 20260506041259 | 55 | 262 | 1.7 | 4.3 | 0.00 | 0.00 | 0.11 | 54 | 1002.7 |
| 20260506035759 | 55 | 258 | 1.7 | 4.3 | 0.00 | 0.00 | 0.11 | 54 | 1002.4 |
| 20260506034259 | 55 | 288 | 0.9 | 1.7 | 0.00 | 0.00 | 0.11 | 54 | 1002.4 |
| 20260506032759 | 55 | 284 | 0.9 | 4.3 | 0.00 | 0.00 | 0.11 | 53 | 1002.0 |
| 20260506031259 | 55 | 244 | 1.7 | 1.7 | 0.00 | 0.00 | 0.11 | 54 | 1002.4 |
| 20260506025759 | 55 | 262 | 2.6 | 4.3 | 0.00 | 0.00 | 0.11 | 54 | 1002.0 |
| 20260506024259 | 55 | 269 | 2.6 | 4.3 | 0.00 | 0.00 | 0.11 | 54 | 1001.7 |
| 20260506022759 | 55 | 251 | 1.7 | 5.2 | 0.00 | 0.00 | 0.11 | 54 | 1001.7 |
| 20260506021259 | 56 | 268 | 3.5 | 6.1 | 0.00 | 0.00 | 0.11 | 54 | 1001.4 |
| 20260506015759 | 56 | 274 | 3.5 | 6.1 | 0.00 | 0.00 | 0.11 | 52 | 1002.0 |
| 20260506014259 | 57 | 265 | 2.6 | 7.0 | 0.00 | 0.00 | 0.11 | 54 | 1001.7 |
| 20260506012759 | 59 | 246 | 1.7 | 7.8 | 0.00 | 0.00 | 0.11 | 53 | 1001.7 |
| 20260506011259 | 61 | 254 | 3.5 | 7.0 | 0.00 | 0.00 | 0.11 | 52 | 1001.7 |
| 20260506005759 | 62 | 269 | 2.6 | 6.1 | 0.00 | 0.00 | 0.11 | 52 | 1001.7 |
| 20260506004259 | 60 | 273 | 0.9 | 5.2 | 0.00 | 0.00 | 0.11 | 53 | 1001.4 |
| 20260506002759 | 60 | 175 | 3.5 | 5.2 | 0.00 | 0.00 | 0.11 | 53 | 1001.4 |
| 20260506001259 | 59 | 286 | 7.0 | 11.3 | 0.00 | 0.00 | 0.11 | 51 | 1001.4 |
| 20260505235759 | 58 | 331 | 1.7 | 4.3 | 0.00 | 0.00 | 0.11 | 52 | 1001.4 |
| 20260505234259 | 59 | 259 | 2.6 | 2.6 | 0.00 | 0.00 | 0.11 | 53 | 1001.4 |
| 20260505232759 | 59 | 222 | 1.7 | 5.2 | 0.00 | 0.00 | 0.11 | 51 | 1001.4 |
| 20260505231259 | 60 | 261 | 0.9 | 6.1 | 0.00 | 0.00 | 0.11 | 52 | 1001.7 |
| 20260505225759 | 61 | 242 | 2.6 | 7.8 | 0.00 | 0.00 | 0.11 | 52 | 1001.4 |
| 20260505224259 | 61 | 262 | 2.6 | 8.7 | 0.00 | 0.00 | 0.11 | 51 | 1001.4 |
| 20260505222759 | 61 | 247 | 3.5 | 5.2 | 0.00 | 0.00 | 0.11 | 50 | 1001.4 |
| 20260505221259 | 61 | 249 | 4.3 | 9.6 | 0.00 | 0.00 | 0.11 | 53 | 1001.4 |
| 20260505215759 | 61 | 268 | 5.2 | 7.8 | 0.00 | 0.00 | 0.11 | 53 | 1001.4 |
| 20260505214259 | 60 | 253 | 3.5 | 7.0 | 0.00 | 0.00 | 0.11 | 54 | 1001.4 |
| 20260505212759 | 60 | 181 | 0.9 | 2.6 | 0.00 | 0.00 | 0.11 | 53 | 1001.7 |
| 20260505211259 | 59 | 279 | 3.5 | 4.3 | 0.00 | 0.00 | 0.11 | 53 | 1002.0 |
| 20260505205759 | 60 | 278 | 3.5 | 9.6 | 0.00 | 0.00 | 0.11 | 54 | 1001.4 |
| 20260505204259 | 61 | 259 | 6.1 | 8.7 | 0.00 | 0.00 | 0.11 | 54 | 1001.7 |
| 20260505202759 | 60 | 310 | 3.5 | 6.1 | 0.00 | 0.00 | 0.11 | 54 | 1001.7 |
| 20260505201259 | 59 | 297 | 2.6 | 7.8 | 0.00 | 0.00 | 0.11 | 54 | 1001.7 |
| 20260505195759 | 59 | 298 | 5.2 | 7.8 | 0.00 | 0.00 | 0.11 | 53 | 1001.7 |
| 20260505194259 | 58 | 305 | 4.3 | 7.8 | 0.00 | 0.00 | 0.11 | 52 | 1001.7 |
| 20260505192759 | 58 | 284 | 6.1 | 7.0 | 0.00 | 0.00 | 0.11 | 52 | 1002.0 |
| 20260505191259 | 56 | 245 | 3.5 | 7.8 | 0.00 | 0.00 | 0.11 | 53 | 1002.0 |
| 20260505185759 | 56 | 260 | 4.3 | 7.0 | 0.00 | 0.00 | 0.11 | 53 | 1001.7 |
| 20260505184259 | 56 | 258 | 3.5 | 7.8 | 0.00 | 0.00 | 0.11 | 54 | 1002.0 |
| 20260505182759 | 56 | 325 | 4.3 | 6.1 | 0.00 | 0.00 | 0.11 | 52 | 1001.7 |
| 20260505181259 | 55 | 282 | 2.6 | 7.0 | 0.00 | 0.00 | 0.11 | 53 | 1001.4 |
| 20260505175759 | 55 | 289 | 2.6 | 6.1 | 0.00 | 0.00 | 0.11 | 53 | 1001.4 |
| 20260505174259 | 54 | 290 | 4.3 | 6.1 | 0.00 | 0.00 | 0.11 | 52 | 1001.4 |
| 20260505172759 | 54 | 257 | 2.6 | 5.2 | 0.00 | 0.00 | 0.11 | 51 | 1001.4 |
| 20260505171259 | 54 | 290 | 3.5 | 6.1 | 0.00 | 0.00 | 0.11 | 52 | 1001.4 |
| 20260505165759 | 54 | 308 | 2.6 | 5.2 | 0.00 | 0.00 | 0.11 | 53 | 1001.0 |
| 20260505164259 | 54 | 283 | 3.5 | 6.1 | 0.02 | 0.00 | 0.11 | 52 | 1001.4 |
| 20260505162759 | 53 | 259 | 1.7 | 4.3 | 0.02 | 0.00 | 0.11 | 52 | 1001.4 |
| 20260505161259 | 52 | 260 | 0.9 | 5.2 | 0.02 | 0.00 | 0.11 | 52 | 1001.0 |
| 20260505152759 | 52 | 252 | 0.9 | 5.2 | 0.00 | 0.00 | 0.09 | 51 | 1000.7 |
| 20260505151259 | 52 | 271 | 1.7 | 2.6 | 0.00 | 0.00 | 0.09 | 50 | 1000.7 |
| 20260505124259 | 50 | 291 | 0.0 | 1.7 | 0.00 | 0.00 | 0.09 | 48 | 999.7 |
| 20260505122759 | 49 | 288 | 1.7 | 2.6 | 0.00 | 0.00 | 0.09 | 48 | 1000.0 |
| 20260505121259 | 49 | 301 | 0.9 | 2.6 | 0.00 | 0.00 | 0.09 | 49 | 999.7 |
| 20260505115759 | 49 | 274 | 2.6 | 2.6 | 0.00 | 0.00 | 0.09 | 48 | 1000.0 |
| 20260505114259 | 49 | 254 | 0.0 | 0.9 | 0.00 | 0.00 | 0.09 | 48 | 1000.0 |
| 20260505112759 | 50 | 260 | 0.0 | 0.0 | 0.00 | 0.00 | 0.09 | 48 | 1000.3 |
| 20260505111259 | 50 | 256 | 1.7 | 1.7 | 0.00 | 0.00 | 0.09 | 48 | 1000.3 |
| 20260505101259 | 50 | 275 | 1.7 | 2.6 | 0.01 | 0.00 | 0.09 | 49 | 1000.0 |
| 20260505095759 | 50 | 245 | 1.7 | 4.3 | 0.02 | 0.00 | 0.09 | 49 | 1000.3 |